星链-1046 (STARLINK-1046 )

导读

STARLINK-1046是SpaceX星链星座中的卫星,由美国于2019年11月11日08:00发射,属于星链计划的早期组网卫星。星链旨在构建全球卫星互联网,为全球偏远地区提供高速网络接入服务,该卫星承担着星座技术验证与初期服务覆盖的任务,推进全球互联网络布局。

基本信息
目录编号:
44751
目录名称:
STARLINK-1046
国际标识:
2019-074AQ
轨道中心:
EARTH
卫星名称:
星链-1046
卫星全名:
星链-1046 (STARLINK-1046 )
卫星状态:
在轨 (已飞行2496 天)
发射日期:
2019-11-11 UTC
国别 :
美国 (US)
星等 :
--
轨道信息
数据来源 国际轨道数据
星历时间: 2026-09-10T21:46:21+0800
13小时前
查看轨道信息
半长轴: 6736.029km
偏心率: 0.0001518
轨道倾角: 53.045°
近地点辐角 328.139°
升交点赤经 35.338°
平近点角 31.954°
近地点: 356.869km
远地点: 358.915km
周期: 91.699分钟
每日圈数: 15.703515
详细信息
固有亮度:
5
最大亮度:
2.5
卫星平台:
Starlink V1.0
覆盖范围:
全球
运营商:
太空探索技术公司
运营商所在国:
美国
制造商(研发单位):
太空探索技术公司
制造商所在国:
美国
使用方式:
暂无
卫星简介
星链(Starlink)计划是由太空探索技术公司(SpaceX)提出的一个巨型低轨卫星互联网星座项目,计划在2019年至2024年间在太空搭建由约1.2万颗卫星组成的“星链”网络,其中1584颗将部署在地球上空550千米处的近地轨道,并从2020年开始工作。该卫星仍在工作。
2D轨道图
3D轨道图
轨道高度分析图
轨道倾角分析图
轨道综合分析图
查看轨道综合分析图
交会数据列表
事件ID 空间交会对象 最接近时刻(TCA) 交会距离 交会风险概率(CRP) 交会风险指数(CRI) 操作
CDM_260911-233204-475106-222422
2026-09-11T
23:32:50+0000
1.421 km
极远距离
6.529368E-6 低风险 0.51
CDM_260911-220804-475106-018522
2026-09-11T
22:08:20+0000
2.043 km
极远距离
1.655994E-6 低风险 0.39
CDM_260912-224904-475106-352321
OBJECT E (63523)
2026-09-12T
22:49:54+0000
2.167 km
极远距离
1.552638E-6 低风险 0.39
CDM_260912-010204-475106-040421
2026-09-12T
01:02:00+0000
2.471 km
极远距离
1.550058E-6 低风险 0.39
CDM_260911-112104-475106-412522
2026-09-11T
11:21:16+0000
2.578 km
极远距离
1.212335E-6 低风险 0.37
CDM_260911-020104-475106-331821
2026-09-11T
02:01:54+0000
2.888 km
极远距离
1.207355E-6 低风险 0.37
CDM_260912-164004-475106-105721
2026-09-12T
16:40:36+0000
2.588 km
极远距离
1.181E-6 低风险 0.36
CDM_260912-203204-475106-352321
OBJECT E (63523)
2026-09-12T
20:32:30+0000
2.584 km
极远距离
1.115171E-6 低风险 0.36
与全量物体交会距离演化趋势
与全量物体交会风险概率演化趋势